CW9244 Weather Reports


Display with metric or nautical units.
time (UTC)temp
F
wind
direction
speed
MPH
gust
MPH
rain 1hr
in
rain 24hr
in
rain mn
in
humidity
%
barometer
mb
20260505040928 54 157 0.0 0.0 0.00 0.00 0.00 78 1027.7
20260505040018 54 202 0.0 1.0 0.00 0.00 0.00 77 1027.6
20260505035014 54 135 0.0 0.0 0.00 0.00 0.00 77 1027.6
20260505034015 54 157 0.0 0.0 0.00 0.00 0.00 77 1027.6
20260505033013 54 157 0.0 0.0 0.00 0.00 0.00 75 1027.7
20260505032013 55 157 0.0 0.0 0.00 0.00 0.00 75 1027.6
20260505031012 55 182 0.0 1.0 0.00 0.00 0.00 76 1027.7
20260505030012 55 157 0.0 2.0 0.00 0.00 0.00 75 1027.7
20260505024112 55 202 0.0 1.0 0.00 0.00 0.00 75 1027.7
20260505022214 55 202 0.0 1.0 0.00 0.00 0.00 74 1027.9
20260505021213 55 202 0.0 1.0 0.00 0.00 0.00 73 1027.9
20260505020213 55 203 0.0 1.0 0.00 0.00 0.00 74 1027.9
20260505015311 55 247 0.0 0.0 0.00 0.00 0.00 74 1027.8
20260505013314 55 225 0.0 1.0 0.00 0.00 0.00 72 1027.9
20260505012315 55 200 1.0 2.0 0.00 0.00 0.00 72 1027.7
20260505011312 56 202 0.0 1.0 0.00 0.00 0.00 72 1027.5
20260505010312 56 168 0.0 3.0 0.00 0.00 0.00 71 1027.4
20260505005314 56 120 0.0 1.0 0.00 0.00 0.00 70 1027.3
20260505004412 56 225 0.0 2.0 0.00 0.00 0.00 70 1027.1
20260505003413 56 215 0.0 3.0 0.00 0.00 0.00 70 1027.0
20260505002414 56 247 0.0 1.0 0.00 0.00 0.00 71 1027.0
20260505001511 56 202 0.0 1.0 0.00 0.00 0.00 72 1026.9
20260505000514 56 202 0.0 2.0 0.00 0.00 0.00 71 1026.8
20260504235513 56 202 1.0 2.0 0.00 0.00 0.00 70 1026.6
20260504233512 57 167 1.0 4.0 0.00 0.00 0.00 68 1026.6
20260504232514 57 189 1.0 3.0 0.00 0.00 0.00 67 1026.6
20260504231513 58 214 0.0 2.0 0.00 0.00 0.00 66 1026.5
20260504225613 59 191 0.0 2.0 0.00 0.00 0.00 63 1026.1
20260504225513 59 197 1.0 4.0 0.00 0.00 0.00 63 1026.2
20260504224612 59 202 0.0 2.0 0.00 0.00 0.00 62 1026.1
20260504223711 60 202 0.0 2.0 0.00 0.00 0.00 61 1026.3
20260504222713 60 225 0.0 1.0 0.00 0.00 0.00 60 1026.5
20260504221812 60 184 1.0 3.0 0.00 0.00 0.00 60 1026.4
20260504220815 61 159 2.0 8.0 0.00 0.00 0.00 58 1026.5
20260504215812 61 177 1.0 2.0 0.00 0.00 0.00 58 1026.7
20260504214813 62 167 0.0 3.0 0.00 0.00 0.00 57 1026.7
20260504213911 62 206 1.0 2.0 0.00 0.00 0.00 56 1026.7
20260504212914 63 218 1.0 3.0 0.00 0.00 0.00 54 1026.7
20260504205914 64 172 1.0 3.0 0.00 0.00 0.00 53 1026.5
20260504205012 65 211 0.0 3.0 0.00 0.00 0.00 52 1026.7
20260504204914 65 214 0.0 2.0 0.00 0.00 0.00 52 1026.6
20260504203912 65 195 1.0 3.0 0.00 0.00 0.00 51 1026.5
20260504201913 67 196 3.0 5.0 0.00 0.00 0.00 47 1026.5
20260504200913 68 175 2.0 5.0 0.00 0.00 0.00 44 1026.5
20260504195913 69 170 1.0 3.0 0.00 0.00 0.00 45 1026.5
20260504192012 73 247 1.0 3.0 0.00 0.00 0.00 38 1026.5
20260504191111 73 180 1.0 2.0 0.00 0.00 0.00 38 1026.6
20260504190113 73 180 2.0 5.0 0.00 0.00 0.00 38 1026.8
20260504185212 73 180 2.0 4.0 0.00 0.00 0.00 38 1026.8
20260504184213 73 180 1.0 3.0 0.00 0.00 0.00 36 1027.0
20260504183313 72 180 1.0 2.0 0.00 0.00 0.00 36 1027.1
20260504181314 72 157 1.0 2.0 0.00 0.00 0.00 37 1027.3
20260504180314 72 157 1.0 5.0 0.00 0.00 0.00 38 1027.3
20260504174315 71 172 1.0 4.0 0.00 0.00 0.00 37 1027.5
20260504173316 71 157 1.0 4.0 0.00 0.00 0.00 38 1027.4
20260504172313 71 80 0.0 1.0 0.00 0.00 0.00 37 1027.6
20260504171313 70 183 1.0 4.0 0.00 0.00 0.00 38 1027.7
20260504170311 70 224 0.0 3.0 0.00 0.00 0.00 36 1027.8
20260504160413 69 202 0.0 1.0 0.00 0.00 0.00 34 1028.4
20260504150512 69 180 1.0 6.0 0.00 0.00 0.00 34 1028.9
20260504140612 66 292 2.0 5.0 0.00 0.00 0.00 38 1029.2
20260504100113 44 225 0.0 1.0 0.00 0.00 0.00 70 1029.6
20260504081112 44 225 0.0 0.0 0.00 0.00 0.00 67 1028.9
20260504080113 44 225 0.0 0.0 0.00 0.00 0.00 67 1028.8
20260504070312 46 292 0.0 0.0 0.00 0.00 0.00 66 1028.4
20260504050611 42 292 0.0 0.0 0.00 0.00 0.00 69 1028.1